Theta_e
290 290 290 290 290 290 289 290 290 291 291 292 293 293 294 295 296 297 299 301 305 311 313 317 318 320 320 324 321 320 325 323 323 321 317 314 313 314
289 290 290 291 290 287 288 288 289 290 290 291 292 293 293 293 294 294 297 300 303 306 310 314 316 319 321 323 320 318 325 325 324 323 319 316 314 313
289 289 289 288 286 287 288 288 289 289 289 289 290 290 291 292 292 292 294 299 301 304 306 310 312 315 320 321 321 320 320 319 324 324 320 318 316 314
287 287 287 285 286 286 285 286 287 287 288 288 288 288 289 289 289 290 291 295 298 301 303 306 308 312 317 320 321 320 321 321 326 323 323 320 317 316
285 285 284 285 285 284 285 285 285 285 285 285 284 284 285 288 289 289 290 294 297 299 301 305 308 310 314 317 319 319 322 320 324 324 325 324 322 320
284 282 283 283 283 283 283 282 282 282 282 282 282 282 282 284 285 285 287 290 294 297 300 301 305 310 312 314 316 318 319 321 323 326 326 326 323 319
282 282 282 282 281 280 280 280 280 280 280 281 281 282 282 283 283 284 285 286 291 291 296 300 302 307 312 313 315 317 319 320 320 320 325 326 327 322
280 280 281 279 279 279 278 279 279 279 280 280 280 280 281 282 283 283 284 284 285 289 290 295 296 303 309 314 315 315 317 321 320 317 322 326 325 326
279 279 279 278 279 278 278 277 278 278 278 278 279 279 279 280 280 281 281 282 282 287 285 289 293 296 307 311 313 314 317 318 318 319 321 322 326 327
278 277 278 278 277 277 277 276 278 279 277 277 277 278 278 278 279 280 281 281 281 284 284 284 291 293 300 308 311 313 313 316 318 318 319 321 324 326
277 277 277 277 276 276 276 276 277 277 278 279 280 278 279 279 278 278 279 280 281 282 284 284 289 294 297 304 310 313 315 316 317 318 319 320 322 323
277 277 277 275 275 275 274 275 274 275 277 279 280 280 280 280 280 278 278 279 279 281 286 287 290 293 295 303 309 311 313 315 316 317 318 320 322 322
275 276 276 275 274 274 274 273 274 274 278 278 278 278 279 279 279 279 278 277 278 279 282 282 283 289 289 295 304 311 312 315 315 316 319 320 322 323
275 275 275 275 275 275 276 273 275 277 277 277 277 277 277 277 279 279 279 279 280 280 282 283 282 284 286 291 294 303 308 316 317 316 316 319 320 322
274 274 274 275 275 276 275 275 275 275 275 275 275 276 276 276 277 277 279 280 280 281 281 285 284 284 285 288 293 299 304 310 313 314 316 315 317 320
274 275 274 274 273 274 274 274 274 273 273 273 274 276 277 276 277 276 277 278 277 280 283 284 285 285 285 286 290 297 302 310 314 314 315 316 318 319
273 274 274 274 274 273 273 273 273 273 273 274 274 275 276 276 277 277 277 276 277 279 281 284 287 289 290 290 291 296 301 304 309 314 315 315 317 320
273 272 272 271 271 270 271 271 271 271 272 273 274 274 274 274 274 277 276 275 277 279 281 284 287 290 290 289 291 296 302 304 308 311 313 315 315 318
272 272 271 270 269 269 269 270 270 270 271 272 273 273 273 274 273 274 274 275 276 278 281 285 290 293 291 290 294 297 301 304 308 310 311 309 314 315
272 271 270 269 269 268 269 269 269 270 270 271 272 273 273 272 273 273 273 274 276 278 281 284 287 295 297 297 299 300 303 305 308 311 310 306 307 313
270 270 269 269 268 267 268 268 268 269 269 270 271 272 273 272 273 273 273 274 276 278 281 284 287 291 296 300 302 303 304 306 307 309 309 307 304 306
270 269 269 268 268 267 267 267 268 268 269 269 270 271 272 273 272 272 274 273 276 278 281 284 287 291 294 300 301 302 303 300 299 301 301 305 304 299
269 269 268 268 267 267 266 267 267 267 268 268 269 271 271 273 273 274 275 275 276 279 281 283 285 289 294 297 300 299 298 296 295 295 294 296 302 306
Wind_Speed
22 23 23 24 24 24 22 23 28 35 36 29 27 37 36 35 34 37 37 32 32 34 35 33 30 34 36 39 43 57 58 61 58 54 52 48 48 47
23 24 24 24 24 23 24 25 26 32 39 33 35 31 36 41 41 43 41 33 31 34 36 38 35 27 30 31 38 51 64 65 60 55 52 51 52 50
23 24 24 23 24 25 25 25 28 30 39 42 38 37 37 38 39 43 43 38 33 32 33 39 40 31 28 24 36 43 58 62 71 57 53 53 53 52
23 23 23 22 24 26 26 27 28 29 33 41 36 36 39 42 45 44 46 44 38 33 32 33 38 36 31 27 34 42 43 56 65 62 57 54 54 55
22 22 22 25 26 25 25 26 29 31 35 43 46 40 39 37 40 39 41 41 38 33 33 31 28 34 34 35 34 38 43 45 68 60 59 58 56 54
22 21 23 24 22 26 30 28 33 36 35 36 37 37 37 38 37 39 44 39 41 37 33 29 28 28 34 34 32 33 43 40 59 64 60 59 59 56
23 23 24 21 19 24 23 30 33 35 35 35 37 38 38 37 39 42 42 43 42 41 36 27 20 26 32 35 35 33 30 44 49 66 68 62 57 57
23 25 25 21 25 24 26 28 28 29 31 32 33 34 37 37 40 41 44 45 45 37 28 39 30 30 31 28 31 30 33 40 46 52 63 60 59 59
24 28 27 24 26 29 32 32 28 26 26 26 31 35 40 39 39 43 43 41 44 48 46 56 44 42 35 31 27 27 30 35 42 51 53 63 60 60
26 28 26 27 27 32 34 32 31 29 26 27 30 33 32 34 35 38 42 46 49 45 39 44 46 44 34 40 33 32 31 35 39 46 49 42 63 62
28 26 26 25 30 31 32 33 32 33 32 31 29 28 27 27 27 30 36 38 41 42 38 35 45 44 40 38 41 35 33 30 35 43 47 48 48 60
28 28 28 26 29 29 30 30 34 38 37 35 34 32 30 29 26 23 26 34 38 36 22 17 16 23 16 27 35 36 33 32 34 35 43 46 49 65
29 30 29 28 27 28 26 28 31 34 34 36 38 39 37 35 32 29 28 29 35 41 40 40 43 36 28 31 25 23 32 35 39 38 39 41 48 51
28 28 28 27 27 28 28 29 31 33 36 39 41 43 44 41 38 34 31 31 32 38 36 36 42 37 41 47 36 34 36 23 33 42 49 47 45 54
26 26 25 27 28 29 31 33 35 39 41 42 45 46 46 45 42 42 37 35 37 35 37 37 41 45 47 47 36 36 36 37 36 39 42 51 56 55
25 26 26 29 32 34 36 37 40 42 42 43 45 47 48 49 47 45 45 44 46 46 39 34 39 45 51 49 47 40 39 33 30 35 40 43 49 53
28 28 31 32 35 38 39 41 42 44 45 45 46 48 51 52 50 49 47 48 45 46 50 43 37 38 43 47 50 41 47 46 36 33 37 43 45 48
29 32 33 34 35 40 42 43 43 45 46 46 47 48 51 53 55 51 50 49 48 48 49 47 33 32 35 44 49 44 41 48 45 40 42 44 45 44
31 32 33 34 33 37 41 41 44 45 45 46 47 49 50 52 54 54 52 52 54 51 49 44 28 35 35 41 39 53 47 48 44 42 43 47 46 48
31 32 32 33 32 35 39 41 42 45 46 47 48 49 50 52 54 54 52 52 53 54 48 45 26 23 40 37 32 40 47 46 42 43 42 42 40 39
32 32 31 32 31 34 37 40 40 42 45 46 48 49 50 51 52 54 53 52 51 48 46 44 34 16 19 25 36 40 45 50 50 49 46 45 44 43
32 32 31 30 30 34 37 39 40 42 43 46 47 49 49 49 51 54 54 51 51 50 45 44 33 14 12 23 31 37 37 39 36 38 42 49 49 40
32 31 31 30 31 34 36 38 38 40 41 44 46 47 48 50 50 51 52 50 50 49 47 46 38 21 6 16 25 30 38 37 35 37 38 41 47 50
Wind_Direction
331 327 326 323 318 318 318 314 310 308 311 312 313 313 316 317 310 306 301 292 280 264 256 250 253 258 253 272 252 234 225 231 227 225 227 227 225 221
335 330 328 327 328 330 326 319 317 310 299 307 312 311 309 310 303 303 304 297 281 274 262 254 255 260 263 272 251 222 231 227 229 227 225 228 227 225
335 332 330 334 334 329 323 316 308 306 304 304 307 312 313 312 305 304 304 303 291 280 273 257 254 253 251 257 244 242 240 244 230 223 226 228 229 227
335 332 334 331 319 316 320 322 316 310 308 306 307 303 300 302 300 301 303 302 297 291 283 268 257 250 250 249 243 244 251 245 223 216 223 225 228 228
337 333 329 323 326 333 319 311 311 304 301 302 307 311 311 314 310 306 303 301 297 291 285 270 263 248 245 245 240 243 243 248 238 215 223 223 227 225
336 333 328 326 336 312 311 314 309 312 317 317 313 314 316 318 315 312 310 305 301 295 285 286 272 255 245 245 242 244 244 239 232 227 224 226 227 225
340 336 331 333 311 313 324 322 324 321 319 318 316 314 314 316 315 315 307 312 305 303 299 290 272 255 244 241 242 240 239 233 245 239 233 229 227 225
344 340 336 333 324 328 330 326 320 318 316 313 313 313 311 306 299 297 293 297 301 297 298 285 281 266 246 240 244 245 239 239 232 235 241 227 227 226
349 347 339 335 337 341 330 324 324 322 321 323 317 307 304 307 307 305 303 298 293 292 294 288 285 278 249 244 244 241 249 249 238 231 238 236 228 227
353 348 343 339 342 337 330 328 326 329 332 319 308 307 306 305 299 295 294 292 293 293 293 285 289 286 272 246 243 244 239 253 242 236 235 235 233 228
355 353 346 347 345 339 333 328 330 334 332 329 328 326 321 315 305 301 293 296 293 292 291 283 289 296 283 259 241 244 248 241 244 233 236 233 237 233
355 354 351 349 342 341 338 338 341 332 333 337 341 341 340 334 327 315 302 294 293 298 292 329 309 317 301 285 246 239 249 245 247 242 226 233 236 230
352 354 353 349 344 345 344 351 338 334 342 344 346 348 345 341 335 326 316 303 293 284 280 279 280 266 273 278 271 253 247 241 240 233 222 222 225 230
355 353 352 354 354 356 357 350 350 350 352 351 350 349 347 344 340 334 326 316 304 296 297 282 273 265 268 266 270 269 253 240 242 232 228 227 224 229
354 351 351 355 357 359 2 3 1 360 357 354 352 350 348 345 342 340 335 330 322 313 304 284 272 268 259 250 261 264 262 249 250 242 232 226 229 224
352 351 355 357 2 1 1 3 5 2 358 354 351 350 350 348 346 345 340 339 325 318 317 297 283 267 256 248 240 252 249 242 246 236 227 227 227 233
351 352 357 357 359 0 360 360 2 1 358 356 353 352 351 350 349 347 345 334 320 314 315 313 296 266 255 245 237 237 246 243 243 241 234 224 224 226
354 358 358 357 357 356 357 355 358 358 356 356 355 353 351 347 345 348 346 328 322 319 316 315 304 254 244 240 230 231 241 240 240 241 235 228 221 224
359 358 355 354 352 351 353 352 353 354 353 355 354 354 351 349 345 345 340 328 326 323 321 321 310 228 216 222 224 218 229 237 235 231 230 225 227 225
357 355 352 351 349 347 349 349 350 350 352 353 353 353 353 348 345 343 335 327 326 326 324 331 340 233 220 223 213 219 222 229 232 232 227 225 226 234
352 352 350 349 347 345 347 347 348 349 349 351 352 352 352 349 348 343 338 332 331 331 328 330 336 314 245 227 213 215 218 225 231 237 233 222 218 217
348 348 347 347 347 346 345 346 346 347 349 349 350 350 351 350 348 343 344 334 335 339 332 338 347 332 213 215 208 208 205 206 215 221 224 224 214 202
346 346 345 345 346 346 345 345 346 345 348 347 347 349 350 349 351 348 349 347 342 348 343 349 354 355 306 225 214 204 197 191 191 188 187 200 215 220